Tracking 19164 objects as of 20-May-2018
HD Live streaming from Space Station
objects crossing your sky now

RADUGA 17

Track RADUGA 17 now!
RADUGA 17 is classified as:


NORAD ID: 16250
Int'l Code: 1985-107A
Perigee: 35,786.8 km
Apogee: 35,860.7 km
Inclination: 14.1 °
Period: 1,437.6 minutes
Semi major axis: 42194 km
RCS: 3.981 m2 (large)
Launch date: November 15, 1985
Source: Commonwealth of Independent States (former USSR) (CIS)
Launch site: TYURATAM MISSILE AND SPACE COMPLEX (TTMTR)
aabbcc
Your satellite tracking list
Your tracking list is empty




NASA's NSSDC Master Catalog

Two Line Element Set (TLE):
1 16250U 85107A   18140.73089596  .00000079  00000-0  00000+0 0  9991
2 16250  14.0764 343.5035 0008747 154.2771 201.3407  1.00164853122251
Source of the keplerian elements: AFSPC